Date String (YYYY-MM-DD hh:mm:ss) UTC,Instrument flags,absolute air pressure of the measurement (hPa),sample flow rate (lpm),inlet stack bypass flow (lpm),air temperature of the measurement (°C),ambient temperature measured by the external sensor (°C),aerosol sample conditioner tube jacket temperature (°C),OPC LED temperature (°C),internal box temperature (°C),relative humidity of the measurement (%),span deviation,mass concentration of particles derived from Lorenz-Mie calculation of OPC scattering (μg/m³),mass concentration of particles derived from Lorenz-Mie calculation of OPC scattering (μg/m³),mass concentration of particles derived from Lorenz-Mie calculation of OPC scattering (μg/m³)
DateTimeUTC,F1_M11,P_M11,Q1_M11,Q2_M11,T1_M11,T2_M11,T3_M11,T4_M11,T5_M11,U1_M11,ZSPAN_M11,X0_M11,X2_M11,X1_M11
2023-06-25 18:00:00,SystemResetWarning,0834.9,5.00,000.00,029.2,025.4,000.0,037.7,030.5,29.7,0000.0,0011.09,0005.37,0004.22
2023-06-25 18:01:00,SystemResetWarning,0834.9,5.00,000.00,029.2,025.9,000.0,037.7,030.5,29.8,0000.0,0011.21,0005.33,0004.22
2023-06-25 18:02:00,SystemResetWarning,0834.7,4.99,000.00,029.2,026.3,000.0,037.7,030.6,30.1,0000.0,0011.47,0005.33,0004.22
2023-06-25 18:03:00,SystemResetWarning,0834.8,4.99,000.00,029.2,026.7,000.0,037.7,030.6,30.0,0000.0,0011.59,0005.31,0004.23
2023-06-25 18:04:00,SystemResetWarning,0834.9,5.02,000.00,029.2,027.0,000.0,037.7,030.7,30.5,0000.0,0011.61,0005.32,0004.24
2023-06-25 18:05:00,SystemResetWarning,0834.7,5.00,000.00,029.2,027.2,000.0,037.7,030.7,30.6,0000.0,0012.28,0005.33,0004.26
2023-06-25 18:06:00,SystemResetWarning,0834.7,5.00,000.00,029.2,027.4,000.0,037.7,030.8,31.0,0000.0,0012.47,0005.38,0004.28
2023-06-25 18:07:00,SystemResetWarning,0834.7,5.01,000.00,029.3,027.6,000.0,037.8,030.8,30.7,0000.0,0013.05,0005.42,0004.29
2023-06-25 18:08:00,SystemResetWarning,0834.8,5.00,000.00,029.3,027.8,000.0,037.8,030.9,31.1,0000.0,0013.49,0005.43,0004.30
2023-06-25 18:09:00,SystemResetWarning,0835.2,5.00,000.00,029.3,027.9,000.0,037.8,030.9,30.5,0000.0,0013.95,0005.41,0004.31
2023-06-25 18:10:00,SystemResetWarning,0835.3,5.00,000.00,029.4,027.9,000.0,037.8,031.0,29.9,0000.0,0014.12,0005.41,0004.31
2023-06-25 18:11:00,SystemResetWarning,0835.1,4.98,000.00,029.4,026.4,000.0,037.8,031.1,31.1,0000.0,0014.12,0005.44,0004.30
2023-06-25 18:12:00,SystemResetWarning,0835.2,5.01,000.00,029.4,025.3,000.0,037.7,031.1,30.1,0000.0,0014.39,0005.44,0004.30
2023-06-25 18:13:00,SystemResetWarning,0834.9,5.01,000.00,029.4,025.5,000.0,037.7,030.9,29.8,0000.0,0015.60,0005.46,0004.29
2023-06-25 18:14:00,SystemResetWarning,0834.6,4.99,000.00,029.3,025.8,000.0,037.7,030.7,29.9,0000.0,0017.18,0005.45,0004.29
2023-06-25 18:15:00,SystemResetWarning,0834.6,5.00,000.00,029.3,026.2,000.0,037.7,030.7,30.6,0000.0,0017.54,0005.46,0004.29
2023-06-25 18:16:00,SystemResetWarning,0834.6,5.00,000.00,029.3,026.6,000.0,037.7,030.7,29.6,0000.0,0017.14,0005.45,0004.27
2023-06-25 18:17:00,SystemResetWarning,0834.8,4.99,000.00,029.3,026.9,000.0,037.8,030.8,29.6,0000.0,0016.80,0005.38,0004.25
2023-06-25 18:18:00,SystemResetWarning,0835.1,5.00,000.00,029.3,027.2,000.0,037.8,030.8,30.1,0000.0,0016.10,0005.34,0004.26
2023-06-25 18:19:00,SystemResetWarning,0835.1,5.01,000.00,029.3,027.4,000.0,037.8,030.9,29.9,0000.0,0015.60,0005.35,0004.26
2023-06-25 18:20:00,SystemResetWarning,0834.5,5.00,000.00,029.3,027.6,000.0,037.8,030.9,30.6,0000.0,0015.67,0005.42,0004.25
2023-06-25 18:21:00,SystemResetWarning,0835.0,5.00,000.00,029.4,027.8,000.0,037.8,031.0,31.1,0000.0,0015.67,0005.45,0004.25
2023-06-25 18:22:00,SystemResetWarning,0834.7,4.98,000.00,029.4,026.6,000.0,037.8,031.1,29.9,0000.0,0016.08,0005.43,0004.27
2023-06-25 18:23:00,SystemResetWarning,0834.8,5.01,000.00,029.4,025.3,000.0,037.7,031.1,29.8,0000.0,0015.40,0005.45,0004.28
2023-06-25 18:24:00,SystemResetWarning,0834.6,5.02,000.00,029.4,025.3,000.0,037.7,031.0,29.3,0000.0,0013.89,0005.43,0004.30
2023-06-25 18:25:00,SystemResetWarning,0834.5,5.00,000.00,029.3,025.7,000.0,037.7,030.7,30.0,0000.0,0012.23,0005.47,0004.29
2023-06-25 18:26:00,SystemResetWarning,0834.5,5.00,000.00,029.3,026.1,000.0,037.7,030.7,31.1,0000.0,0012.07,0005.48,0004.28
2023-06-25 18:27:00,SystemResetWarning,0834.5,5.00,000.00,029.3,026.4,000.0,037.7,030.7,30.2,0000.0,0012.52,0005.51,0004.27
2023-06-25 18:28:00,SystemResetWarning,0834.5,5.00,000.00,029.3,026.8,000.0,037.8,030.8,29.8,0000.0,0012.68,0005.51,0004.26
2023-06-25 18:29:00,SystemResetWarning,0834.5,4.99,000.00,029.3,027.1,000.0,037.8,030.8,30.7,0000.0,0012.65,0005.49,0004.26
2023-06-25 18:30:00,SystemResetWarning,0834.5,4.99,000.00,029.3,027.3,000.0,037.8,030.8,30.3,0000.0,0013.26,0005.48,0004.26
2023-06-25 18:31:00,SystemResetWarning,0834.5,5.00,000.00,029.3,027.5,000.0,037.8,030.9,29.0,0000.0,0012.93,0005.44,0004.25
2023-06-25 18:32:00,SystemResetWarning,0834.3,5.00,000.00,029.4,027.7,000.0,037.8,031.0,29.9,0000.0,0012.97,0005.37,0004.24
2023-06-25 18:33:00,SystemResetWarning,0834.4,5.00,000.00,029.4,027.7,000.0,037.8,031.0,29.9,0000.0,0013.64,0005.30,0004.22
2023-06-25 18:34:00,SystemResetWarning,0834.4,4.99,000.00,029.4,026.2,000.0,037.8,031.1,30.0,0000.0,0013.70,0005.26,0004.20
2023-06-25 18:35:00,SystemResetWarning,0834.4,5.00,000.00,029.4,025.3,000.0,037.7,031.1,30.9,0000.0,0013.79,0005.25,0004.19
2023-06-25 18:36:00,SystemResetWarning,0834.4,5.01,000.00,029.4,025.5,000.0,037.7,030.9,30.2,0000.0,0013.92,0005.21,0004.18
2023-06-25 18:37:00,SystemResetWarning,0834.4,5.01,000.00,029.3,025.9,000.0,037.7,030.7,30.3,0000.0,0014.00,0005.18,0004.19
2023-06-25 18:38:00,SystemResetWarning,0834.3,4.99,000.00,029.3,026.2,000.0,037.8,030.7,30.5,0000.0,0013.41,0005.15,0004.18
2023-06-25 18:39:00,SystemResetWarning,0834.3,5.00,000.00,029.3,026.6,000.0,037.8,030.7,30.3,0000.0,0013.82,0005.13,0004.17
2023-06-25 18:40:00,SystemResetWarning,0834.4,5.00,000.00,029.3,026.9,000.0,037.8,030.8,30.5,0000.0,0014.85,0005.16,0004.15
2023-06-25 18:41:00,SystemResetWarning,0834.3,5.00,000.00,029.3,027.2,000.0,037.8,030.8,30.4,0000.0,0014.42,0005.12,0004.12
2023-06-25 18:42:00,SystemResetWarning,0834.3,5.01,000.00,029.3,027.4,000.0,037.8,030.9,30.1,0000.0,0015.03,0005.11,0004.10
2023-06-25 18:43:00,SystemResetWarning,0834.3,4.99,000.00,029.3,027.6,000.0,037.8,030.9,30.1,0000.0,0015.05,0005.09,0004.09
2023-06-25 18:44:00,SystemResetWarning,0834.3,4.99,000.00,029.4,027.8,000.0,037.8,031.0,29.7,0000.0,0014.58,0005.12,0004.08
2023-06-25 18:45:00,SystemResetWarning,0834.2,4.99,000.00,029.4,027.5,000.0,037.8,031.1,29.8,0000.0,0014.56,0005.13,0004.07
2023-06-25 18:46:00,SystemResetWarning,0834.4,5.01,000.00,029.4,025.8,000.0,037.8,031.1,29.7,0000.0,0015.13,0005.19,0004.06
2023-06-25 18:47:00,SystemResetWarning,0834.2,5.01,000.00,029.4,025.3,000.0,037.7,031.0,30.0,0000.0,0015.05,0005.20,0004.05
2023-06-25 18:48:00,SystemResetWarning,0834.3,5.01,000.00,029.3,025.6,000.0,037.7,030.7,29.9,0000.0,0015.35,0005.21,0004.03
2023-06-25 18:49:00,SystemResetWarning,0834.4,5.00,000.00,029.3,025.9,000.0,037.7,030.7,30.8,0000.0,0015.68,0005.22,0004.03
2023-06-25 18:50:00,SystemResetWarning,0834.4,5.00,000.00,029.3,026.3,000.0,037.8,030.7,30.6,0000.0,0015.59,0005.25,0004.03
2023-06-25 18:51:00,SystemResetWarning,0834.4,5.00,000.00,029.3,026.7,000.0,037.8,030.7,31.9,0000.0,0014.67,0005.23,0004.03
2023-06-25 18:52:00,SystemResetWarning,0834.4,5.00,000.00,029.3,027.0,000.0,037.8,030.8,31.0,0000.0,0014.67,0005.21,0004.03
2023-06-25 18:53:00,SystemResetWarning,0834.2,4.99,000.00,029.3,027.3,000.0,037.8,030.8,30.6,0000.0,0014.39,0005.18,0004.05
2023-06-25 18:54:00,SystemResetWarning,0834.2,5.00,000.00,029.3,027.5,000.0,037.8,030.9,31.6,0000.0,0014.19,0005.17,0004.04
2023-06-25 18:55:00,SystemResetWarning,0834.2,5.00,000.00,029.4,027.7,000.0,037.8,030.9,30.4,0000.0,0013.46,0005.14,0004.03
2023-06-25 18:56:00,SystemResetWarning,0834.2,4.99,000.00,029.4,027.6,000.0,037.8,031.0,30.0,0000.0,0012.98,0005.11,0004.02
2023-06-25 18:57:00,SystemResetWarning,0834.1,5.00,000.00,029.4,025.9,000.0,037.8,031.0,29.8,0000.0,0012.32,0005.02,0004.00
2023-06-25 18:58:00,SystemResetWarning,0834.2,5.01,000.00,029.4,024.4,000.0,037.7,030.9,29.4,0000.0,0012.31,0004.94,0003.96
2023-06-25 18:59:00,SystemResetWarning,0834.1,5.02,000.00,029.3,024.3,000.0,037.7,030.8,30.1,0000.0,0011.89,0004.91,0003.93
